Regional Weather Roundup
Issued by NWS Midland/Odessa, TX

Skip options and go directly to product.
Home | Oldest Version | Previous Version | Current Version | All | Text Only | Save Text | Print | Product List | Glossary On

Skip product version selection by date and time.   
074
ASUS44 KMAF 301001
RWRMAF
MIDLAND AREA WEATHER ROUNDUP
NATIONAL WEATHER SERVICE MIDLAND TX
500 AM CDT FRI SEP 30 2016

...IN SOUTHWEST TEXAS AND SOUTHEAST NEW MEXICO...

CITY           SKY/WX    TMP DP  RH WIND       PRES   REMARKS
ALPINE         PTCLDY    58  49  73 CALM      30.35F
ANDREWS        FAIR      53  48  86 E3        30.28F
ARTESIA        CLEAR     57  52  82 SE6       30.28F
BIG SPRING     CLEAR     56  49  77 CALM      30.30S
CARLSBAD       CLOUDY    59  52  77 S6        30.26F
DRYDEN           N/A     63  54  72 NE8       30.23S
FORT STOCKTON  CLEAR     60  53  77 S7        30.26S
GUAD PASS      CLOUDY    57  47  69 NE21      30.34F
HOBBS          CLOUDY    54  54 100 CALM      30.30F
MARFA          CLOUDY    55  51  86 CALM      30.33F
MIDLAND AIRPK  PTCLDY    58  49  70 CALM      30.28F
MIDLAND INTL   PTCLDY    55  48  77 NE3       30.27F
ODESSA         CLEAR     58  48  69 E6        30.28F
PECOS          CLOUDY    59  54  82 NE6       30.25F
PRESIDIO       PTSUNNY   72  54  54 N6        30.20F
SEMINOLE       CLEAR     53  48  83 CALM      30.30F
SNYDER           N/A     56  46  70 CALM      30.28S
WINK           CLOUDY    60  50  69 E7        30.24F
$$
...OTHER STATIONS IN TEXAS...

CITY           SKY/WX    TMP DP  RH WIND       PRES   REMARKS
ABILENE        CLEAR     54  50  86 CALM      30.26F
AMARILLO       CLEAR     50  43  77 S12       30.29F
AUSTIN         PTCLDY    54  51  90 CALM      30.20R
BROWNSVILLE    CLEAR     74  70  87 N3        30.06F
CORPUS CHRISTI PTCLDY    67  59  75 N8        30.12S
DALLAS FTW     CLEAR     60  53  77 N8        30.19S
DEL RIO        PTCLDY    64  60  87 CALM      30.20S
EL PASO        CLOUDY    69  49  48 N18       30.25S
HOUSTON INT    CLEAR     59  54  83 N3        30.15R
LUBBOCK        CLOUDY    54  47  77 S7        30.28F
SAN ANGELO     CLEAR     53  50  89 CALM      30.25F
SAN ANTONIO    CLEAR     61  51  70 N8        30.20R
WACO           CLEAR     55  52  89 N9        30.20R
WICHITA FALLS  NOT AVBL
$$
...OTHER LOCATIONS IN NEW MEXICO...

CITY           SKY/WX    TMP DP  RH WIND       PRES   REMARKS
ALAMAGORDO     MOCLDY    61  55  82 NW8       30.34F
ALBUQUERQUE    MOCLDY    59  56  89 E5        30.34F
CANNON AFB     CLOUDY    56  50  81 S3        30.30F
CLOVIS         PTCLDY    54  46  76 SW5       30.30F
HOLLOMAN AFB   LGT RAIN  61  58  92 NW7       30.32F
ROSWELL        PTCLDY    57  47  69 SE3       30.29F
RUIDOSO        CLOUDY    55  46  71 NW10G18   30.43F
SANTA FE       CLOUDY    55  50  83 CALM      30.38F
TRUTH OR CONSE LGT RAIN  58  56  93 S5        30.36F
TUCUMCARI      CLOUDY    57  48  72 SW8       30.25F
$$

USA.gov is the U.S. government's official web portal to all federal, state and local government web resources and services.